Date String (YYYY-MM-DD hh:mm:ss) UTC,Instrument flags,Ambient pressure (hPa),Sample flow (lpm),Bypass flow (lpm),Sample temperature (°C),Ambient temperature (°C),ASC tube jacket temperature (°C),LED temperature (°C),Box temperature (°C),Sample RH (%),Span deviation,Mass concentration (μg/m³),Mass concentration (μg/m³),Mass concentration (μg/m³)
DateTimeUTC,F1_M11,P_M11,Q1_M11,Q2_M11,T1_M11,T2_M11,T3_M11,T4_M11,T5_M11,U1_M11,ZSPAN_M11,X0_M11,X2_M11,X1_M11
2023-05-24 00:00:00,,0829.7,5.01,0.00,29.4,27.5,00.0,37.6,31.1,25.2,0003.7,0038.54,0023.58,0022.08
2023-05-24 00:01:00,,0829.7,5.00,0.00,29.4,27.7,00.0,37.7,31.1,25.0,0003.7,0038.68,0023.57,0022.02
2023-05-24 00:02:00,,0829.7,4.99,0.00,29.4,27.9,00.0,37.7,31.2,24.7,0003.6,0037.30,0023.50,0021.96
2023-05-24 00:03:00,,0829.7,5.00,0.00,29.5,28.0,00.0,37.7,31.2,25.5,0003.6,0035.80,0023.37,0021.87
2023-05-24 00:04:00,,0829.7,5.00,0.00,29.5,27.9,00.0,37.7,31.2,25.8,0003.5,0035.26,0023.34,0021.82
2023-05-24 00:05:00,,0829.6,5.00,0.00,29.5,26.5,00.0,37.6,31.0,24.7,0003.5,0035.23,0023.29,0021.78
2023-05-24 00:06:00,,0829.6,5.01,0.00,29.4,25.8,00.0,37.6,30.9,24.3,0003.6,0034.83,0023.26,0021.78
2023-05-24 00:07:00,,0829.6,5.00,0.00,29.4,25.9,00.0,37.6,30.8,24.3,0003.5,0034.85,0023.27,0021.82
2023-05-24 00:08:00,,0829.6,5.01,0.00,29.3,26.2,00.0,37.6,30.8,24.8,0003.6,0034.73,0023.28,0021.85
2023-05-24 00:09:00,,0829.7,4.99,0.00,29.3,26.5,00.0,37.6,30.9,24.3,0003.5,0035.96,0023.30,0021.90
2023-05-24 00:10:00,,0829.6,4.99,0.00,29.3,26.8,00.0,37.6,30.9,24.6,0003.5,0036.96,0023.36,0021.99
2023-05-24 00:11:00,,0829.7,5.01,0.00,29.3,27.1,00.0,37.6,31.0,24.4,0003.4,0036.87,0023.43,0022.09
2023-05-24 00:12:00,,0829.7,5.00,0.00,29.3,27.4,00.0,37.6,31.0,25.0,0003.4,0035.82,0023.46,0022.18
2023-05-24 00:13:00,,0829.7,5.01,0.00,29.4,27.6,00.0,37.6,31.1,25.5,0003.4,0036.05,0023.50,0022.25
2023-05-24 00:14:00,,0829.6,5.00,0.00,29.4,27.8,00.0,37.7,31.1,25.4,0003.5,0036.30,0023.63,0022.35
2023-05-24 00:15:00,,0829.7,5.00,0.00,29.4,28.0,00.0,37.7,31.2,26.1,0003.5,0036.49,0023.70,0022.44
2023-05-24 00:16:00,,0829.6,5.01,0.00,29.5,28.1,00.0,37.7,31.2,26.2,0003.5,0036.71,0023.78,0022.53
2023-05-24 00:17:00,,0829.6,4.98,0.00,29.5,27.8,00.0,37.7,31.2,26.5,0003.5,0036.90,0023.86,0022.62
2023-05-24 00:18:00,,0829.6,4.99,0.00,29.4,26.3,00.0,37.6,30.9,26.4,0003.6,0038.32,0023.91,0022.67
2023-05-24 00:19:00,,0829.5,5.01,0.00,29.4,25.8,00.0,37.6,30.8,27.0,0003.5,0038.91,0023.95,0022.71
2023-05-24 00:20:00,,0829.6,5.01,0.00,29.3,25.9,00.0,37.6,30.8,26.1,0003.5,0039.46,0024.04,0022.78
2023-05-24 00:21:00,,0829.6,5.00,0.00,29.3,26.2,00.0,37.6,30.8,26.1,0003.6,0037.92,0024.03,0022.79
2023-05-24 00:22:00,,0829.6,4.99,0.00,29.3,26.6,00.0,37.6,30.9,25.4,0003.7,0038.71,0024.02,0022.79
2023-05-24 00:23:00,,0829.6,4.99,0.00,29.3,26.9,00.0,37.6,30.9,25.8,0003.8,0039.44,0024.04,0022.80
2023-05-24 00:24:00,,0829.6,5.02,0.00,29.3,27.2,00.0,37.6,31.0,25.4,0003.8,0039.01,0024.08,0022.83
2023-05-24 00:25:00,,0829.5,5.00,0.00,29.3,27.4,00.0,37.6,31.1,25.8,0003.8,0038.79,0024.09,0022.85
2023-05-24 00:26:00,,0829.5,4.99,0.00,29.4,27.6,00.0,37.6,31.1,26.0,0003.7,0038.64,0024.11,0022.89
2023-05-24 00:27:00,,0829.5,5.00,0.00,29.4,27.8,00.0,37.7,31.1,25.1,0003.8,0038.37,0024.10,0022.94
2023-05-24 00:28:00,,0829.5,5.00,0.00,29.4,28.0,00.0,37.7,31.2,25.4,0003.8,0038.08,0024.14,0023.00
2023-05-24 00:29:00,,0829.5,5.00,0.00,29.5,28.1,00.0,37.7,31.3,25.0,0003.8,0036.75,0024.18,0023.05
2023-05-24 00:30:00,,0829.5,5.00,0.00,29.5,28.2,00.0,37.7,31.3,25.1,0003.8,0036.35,0024.29,0023.14
2023-05-24 00:31:00,,0829.4,4.98,0.00,29.5,26.7,00.0,37.7,31.1,25.0,0003.8,0035.92,0024.37,0023.23
2023-05-24 00:32:00,,0829.4,5.01,0.00,29.4,25.2,00.0,37.6,30.8,25.4,0003.7,0035.64,0024.49,0023.35
2023-05-24 00:33:00,,0829.4,5.01,0.00,29.3,24.9,00.0,37.5,30.7,25.2,0003.7,0035.28,0024.59,0023.51
2023-05-24 00:34:00,,0829.4,5.01,0.00,29.2,25.2,00.0,37.5,30.6,25.4,0003.7,0036.21,0024.73,0023.63
2023-05-24 00:35:00,,0829.4,5.00,0.00,29.2,25.6,00.0,37.5,30.7,25.1,0003.7,0037.16,0024.88,0023.76
2023-05-24 00:36:00,,0829.4,5.00,0.00,29.2,26.0,00.0,37.5,30.7,25.1,0003.8,0037.32,0025.01,0023.89
2023-05-24 00:37:00,,0829.4,5.01,0.00,29.2,26.4,00.0,37.5,30.8,24.5,0003.7,0037.76,0025.13,0023.99
2023-05-24 00:38:00,,0829.4,5.00,0.00,29.2,26.7,00.0,37.5,30.8,24.2,0003.7,0038.35,0025.20,0024.08
2023-05-24 00:39:00,,0829.4,4.99,0.00,29.2,27.0,00.0,37.5,30.9,24.5,0003.6,0038.43,0025.26,0024.10
2023-05-24 00:40:00,,0829.4,5.00,0.00,29.2,27.3,00.0,37.5,30.9,24.5,0003.7,0038.56,0025.30,0024.14
2023-05-24 00:41:00,,0829.4,5.00,0.00,29.2,27.5,00.0,37.5,31.0,24.7,0003.6,0038.53,0025.30,0024.17
2023-05-24 00:42:00,,0829.4,5.00,0.00,29.3,27.7,00.0,37.6,31.0,24.9,0003.6,0038.49,0025.29,0024.16
2023-05-24 00:43:00,,0829.4,4.99,0.00,29.3,27.8,00.0,37.6,31.1,25.0,0003.7,0039.18,0025.32,0024.18
2023-05-24 00:44:00,,0829.4,4.99,0.00,29.3,28.0,00.0,37.6,31.1,25.2,0003.6,0039.18,0025.39,0024.16
2023-05-24 00:45:00,,0829.4,5.00,0.00,29.4,28.1,00.0,37.6,31.2,25.2,0003.5,0037.95,0025.44,0024.17
2023-05-24 00:46:00,,0829.4,5.01,0.00,29.4,28.2,00.0,37.6,31.2,25.3,0003.5,0038.24,0025.39,0024.13
2023-05-24 00:47:00,,0829.4,5.00,0.00,29.4,28.3,00.0,37.7,31.3,25.5,0003.4,0038.98,0025.33,0024.07
2023-05-24 00:48:00,,0829.4,5.00,0.00,29.5,28.3,00.0,37.7,31.3,25.6,0003.5,0039.16,0025.33,0024.09
2023-05-24 00:49:00,,0829.4,4.98,0.00,29.5,27.1,00.0,37.7,31.1,25.5,0003.5,0039.09,0025.48,0024.17
2023-05-24 00:50:00,,0829.4,5.01,0.00,29.4,25.9,00.0,37.6,30.9,25.4,0003.5,0039.80,0025.61,0024.27
2023-05-24 00:51:00,,0829.4,5.01,0.00,29.4,25.9,00.0,37.6,30.9,25.2,0003.5,0041.30,0025.71,0024.36
2023-05-24 00:52:00,,0829.4,4.98,0.00,29.3,26.1,00.0,37.6,30.8,25.2,0003.5,0041.36,0025.77,0024.40
2023-05-24 00:53:00,,0829.4,5.00,0.00,29.3,26.4,00.0,37.6,30.9,25.4,0003.4,0041.62,0025.83,0024.47
2023-05-24 00:54:00,,0829.4,5.00,0.00,29.3,26.7,00.0,37.6,30.9,25.0,0003.3,0041.17,0025.94,0024.56
2023-05-24 00:55:00,,0829.4,5.01,0.00,29.3,27.0,00.0,37.6,31.0,25.1,0003.4,0041.35,0025.99,0024.67
2023-05-24 00:56:00,,0829.4,5.01,0.00,29.3,27.3,00.0,37.6,31.0,25.0,0003.4,0041.13,0026.00,0024.72
2023-05-24 00:57:00,,0829.4,4.99,0.00,29.3,27.5,00.0,37.6,31.1,24.7,0003.4,0040.29,0026.10,0024.82
2023-05-24 00:58:00,,0829.4,4.99,0.00,29.4,27.7,00.0,37.6,31.1,24.8,0003.4,0040.37,0026.19,0024.91
2023-05-24 00:59:00,,0829.4,5.00,0.00,29.4,27.8,00.0,37.7,31.2,24.6,0003.4,0040.00,0026.25,0024.96
